Home   Weather   Farmington   Past weeks

Flag for USA Past Weather in Farmington, New Mexico, USA — Yesterday and Last 2 Weeks

Now
35 °F

Sunny.


Feels Like: 29 °F
Forecast: 15 / 38 °F
Wind: 7 mph from East

Location: Four Corners Regional Airport

Current Time: Dec 8, 2016 at 1:15:36 pm

Latest Report: Dec 8, 2016 at 11:53 am


Visibility: 10 mi

Pressure: 30.42 "Hg (24.88 "Hg at 1617m altitude)

Humidity: 31%

Dew Point: 7 °F

Location of FarmingtonLocation

Past Weather in Farmington — Graph

°F

Farmington Temperature Yesterday

Maximum temperature yesterday: 36 °F (at 1:53 pm)
Minimum temperature yesterday: 16 °F (at 11:53 pm)
Average temperature yesterday: 29 °F

High & Low Weather Summary for the Past Weeks

 TemperatureHumidityPressure
High53 °F (Nov 26, 1:53 pm)100% (Nov 28, 7:53 pm)30.55 "Hg (Nov 28, 7:53 pm)
Low10 °F (Nov 30, 5:53 am)24% (Dec 7, 3:53 pm)29.57 "Hg (Nov 28, 10:00 pm)
Average31 °F64%30.07 "Hg
* Reported Nov 23 11:53 am — Dec 8 11:53 am, Farmington, Weather by CustomWeather, © 2016

Note: Actual official high and low records may vary slightly from our data, if they occured in-between our weather recording intervals... More about our weather records

Advertising

Farmington Weather History for the Previous 24 Hours

Scroll right to see more
 ConditionsComfort  
Time TempWeatherWind HumidityBarometerVisibility
11:53 am
Thu, Dec 8
35 °FSunny.7 mph31%30.42 "Hg10 mi
10:53 am31 °FOvercast.9 mph40%30.45 "Hg10 mi
9:53 am27 °FScattered clouds.8 mph46%30.46 "Hg10 mi
8:53 am23 °FSunny.7 mph50%30.45 "Hg10 mi
7:53 am19 °FOvercast.9 mph62%30.44 "Hg10 mi
6:53 am17 °FPassing clouds.7 mph68%30.42 "Hg10 mi
5:53 am17 °FOvercast.10 mph56%30.40 "Hg10 mi
4:53 am15 °FClear.7 mph64%30.40 "Hg10 mi
3:53 am14 °FClear.7 mph71%30.37 "Hg10 mi
2:53 am16 °FClear.7 mph62%30.36 "Hg10 mi
1:53 am15 °FClear.5 mph70%30.38 "Hg10 mi
12:53 am16 °FClear.7 mph67%30.35 "Hg10 mi
11:53 pm
Wed, Dec 7
16 °FClear.7 mph67%30.35 "Hg10 mi
10:53 pm19 °FClear.5 mph54%30.33 "Hg10 mi
9:53 pm22 °FClear.5 mph48%30.32 "Hg10 mi
8:53 pm24 °FClear.5 mph44%30.29 "Hg10 mi
7:53 pm28 °FClear.No wind35%30.28 "Hg10 mi
6:53 pm26 °FClear.7 mph38%30.26 "Hg10 mi
5:53 pm29 °FClear.9 mph33%30.23 "Hg10 mi
4:53 pm32 °FSunny.12 mph29%30.19 "Hg10 mi
3:53 pm35 °FSunny.14 mph24%30.14 "Hg10 mi
2:53 pm36 °FSunny.16 mph25%30.11 "Hg10 mi
1:53 pm36 °FSunny.14 mph27%30.11 "Hg10 mi
Weather by CustomWeather, © 2016

See weather overviewHow to use our weather pages